Location: Dvur Kralove nad Labem
(50.4330°N, 15.8170°E)
Time: 21:54:15
(UTC+02:00)

ISS - Pass Details

Date: 25 May 2022
Orbit: 414 x 420 km, 51.6° (Epoch: 30 June)

Event Time Altitude Azimuth Distance (km) Brightness Sun altitude
Rises 23:58:11 0° 284° (WNW) 2,367 0.4 -17.6°
Reaches altitude 10° 00:00:37 10° 268° (W) 1,497 -0.8 -17.7°
Enters shadow 00:02:14 18° 242° (WSW) 1,085 -1.8 -17.8°
